timestamp,wind_dir_avg,wind_spd_avg,wind_spd_max_dir,wind_spd_gust,battery_voltage,lat,long
2019-12-26 00:04:01+00:00,342.0,10.47,342.0,11.61,12.65,47.59359,-54.27349
2019-12-26 00:14:01+00:00,350.0,11.43,348.0,14.95,12.57,47.59359,-54.27349
2019-12-26 00:24:01+00:00,349.0,12.13,349.0,13.75,12.57,47.59359,-54.27349
2019-12-26 00:34:01+00:00,342.0,9.79,338.0,12.08,12.57,47.59359,-54.27349
2019-12-26 00:44:01+00:00,336.0,6.89,345.0,9.17,12.57,47.59359,-54.27349
2019-12-26 00:54:01+00:00,336.0,11.02,327.0,13.2,12.57,47.59359,-54.27349
2019-12-26 01:04:01+00:00,331.0,9.8,335.0,11.34,12.57,47.59359,-54.27349
2019-12-26 01:14:01+00:00,346.0,11.0,351.0,13.67,12.57,47.59359,-54.27349
2019-12-26 01:24:01+00:00,347.0,9.38,357.0,11.59,12.57,47.59359,-54.27349
2019-12-26 01:34:01+00:00,329.0,9.69,339.0,10.79,12.57,47.59359,-54.27349
2019-12-26 01:44:01+00:00,337.0,9.59,337.0,10.95,12.57,47.59359,-54.27349
2019-12-26 01:54:01+00:00,331.0,9.7,331.0,10.98,12.57,47.59359,-54.27349
2019-12-26 02:04:01+00:00,339.0,10.22,344.0,12.21,12.57,47.59359,-54.27349
2019-12-26 02:14:01+00:00,335.0,11.53,335.0,13.76,12.57,47.59359,-54.27349
2019-12-26 02:24:01+00:00,338.0,11.8,331.0,14.06,12.57,47.59359,-54.27349
2019-12-26 02:34:01+00:00,336.0,12.53,333.0,14.36,12.57,47.59359,-54.27349
2019-12-26 02:44:01+00:00,345.0,11.38,353.0,12.8,12.57,47.59359,-54.27349
2019-12-26 02:54:01+00:00,327.0,11.19,326.0,13.37,12.57,47.59359,-54.27349
2019-12-26 03:04:01+00:00,322.0,10.6,313.0,12.31,12.57,47.59359,-54.27349
2019-12-26 03:14:01+00:00,320.0,9.62,320.0,11.56,12.57,47.59359,-54.27349
2019-12-26 03:24:01+00:00,332.0,9.71,329.0,12.32,12.57,47.59359,-54.27349
2019-12-26 03:34:01+00:00,337.0,10.98,343.0,13.13,12.57,47.59359,-54.27349
2019-12-26 03:44:01+00:00,338.0,11.45,342.0,12.7,12.57,47.59359,-54.27349
2019-12-26 03:54:01+00:00,332.0,11.74,327.0,13.68,12.57,47.59359,-54.27349
2019-12-26 04:04:01+00:00,321.0,10.61,324.0,12.45,12.57,47.59359,-54.27349
2019-12-26 04:14:01+00:00,329.0,10.81,324.0,12.56,12.49,47.59359,-54.27349
2019-12-26 04:24:01+00:00,332.0,9.89,339.0,12.37,12.49,47.59359,-54.27349
2019-12-26 04:34:01+00:00,315.0,9.79,310.0,12.92,12.49,47.59359,-54.27349
2019-12-26 04:44:01+00:00,327.0,11.35,338.0,12.69,12.49,47.59359,-54.27349
2019-12-26 04:54:01+00:00,322.0,11.09,323.0,12.82,12.49,47.59359,-54.27349
2019-12-26 05:04:01+00:00,331.0,13.42,324.0,16.26,12.49,47.59359,-54.27349
2019-12-26 05:14:01+00:00,326.0,14.34,333.0,18.16,12.49,47.59359,-54.27349
2019-12-26 05:24:01+00:00,326.0,13.7,322.0,16.78,12.49,47.59359,-54.27349
2019-12-26 05:34:01+00:00,323.0,13.0,323.0,15.14,12.49,47.59359,-54.27349
2019-12-26 05:44:01+00:00,318.0,14.91,317.0,16.61,12.49,47.59359,-54.27349
2019-12-26 05:54:01+00:00,328.0,11.95,320.0,14.72,12.49,47.59359,-54.27349
2019-12-26 06:04:01+00:00,336.0,11.88,326.0,14.42,12.49,47.59359,-54.27349
2019-12-26 06:14:01+00:00,330.0,14.06,327.0,16.43,12.49,47.59359,-54.27349
2019-12-26 06:24:01+00:00,322.0,11.56,321.0,14.53,12.49,47.59359,-54.27349
2019-12-26 06:34:01+00:00,323.0,12.65,319.0,16.43,12.49,47.59359,-54.27349
2019-12-26 06:44:01+00:00,321.0,12.66,312.0,15.61,12.49,47.59359,-54.27349
2019-12-26 06:54:01+00:00,323.0,14.73,327.0,17.24,12.49,47.59359,-54.27349
2019-12-26 07:04:01+00:00,330.0,12.16,330.0,15.4,12.49,47.59359,-54.27349
2019-12-26 07:14:01+00:00,324.0,13.31,323.0,15.65,12.49,47.59359,-54.27349
2019-12-26 07:24:01+00:00,327.0,12.06,322.0,13.53,12.49,47.59359,-54.27349
2019-12-26 07:34:01+00:00,323.0,12.52,325.0,13.9,12.49,47.59359,-54.27349
2019-12-26 07:44:01+00:00,323.0,13.13,324.0,15.8,12.49,47.59359,-54.27349
2019-12-26 07:54:01+00:00,331.0,11.93,320.0,13.71,12.49,47.59359,-54.27349
2019-12-26 08:04:01+00:00,321.0,11.46,313.0,12.9,12.49,47.59359,-54.27349
2019-12-26 08:14:01+00:00,321.0,11.32,316.0,13.3,12.41,47.59359,-54.27349
2019-12-26 08:24:01+00:00,336.0,10.26,338.0,12.99,12.41,47.59359,-54.27349
2019-12-26 08:34:01+00:00,320.0,10.52,299.0,12.01,12.41,47.59359,-54.27349
2019-12-26 08:44:01+00:00,326.0,8.9,322.0,11.21,12.41,47.59359,-54.27349
2019-12-26 08:54:01+00:00,316.0,10.65,315.0,13.59,12.41,47.59359,-54.27349
2019-12-26 09:04:01+00:00,321.0,11.28,312.0,13.76,12.41,47.59359,-54.27349
2019-12-26 09:14:01+00:00,324.0,12.78,324.0,14.83,12.41,47.59359,-54.27349
2019-12-26 09:24:01+00:00,326.0,11.13,331.0,14.0,12.41,47.59359,-54.27349
2019-12-26 09:34:01+00:00,329.0,10.92,321.0,12.53,12.41,47.59359,-54.27349
2019-12-26 09:44:01+00:00,332.0,10.52,321.0,12.33,12.41,47.59359,-54.27349
2019-12-26 09:54:01+00:00,331.0,11.75,325.0,14.3,12.41,47.59359,-54.27349
2019-12-26 10:04:01+00:00,336.0,9.02,345.0,10.56,12.41,47.59359,-54.27349
2019-12-26 10:14:01+00:00,344.0,6.58,345.0,9.29,12.41,47.59359,-54.27349
2019-12-26 10:24:01+00:00,331.0,8.53,323.0,9.82,12.41,47.59359,-54.27349
2019-12-26 10:34:01+00:00,349.0,7.6,349.0,9.36,12.41,47.59359,-54.27349
2019-12-26 10:44:01+00:00,338.0,10.84,346.0,11.85,12.41,47.59359,-54.27349
2019-12-26 10:54:01+00:00,339.0,9.88,344.0,11.44,12.41,47.59359,-54.27349
2019-12-26 11:04:01+00:00,332.0,7.58,336.0,9.44,12.41,47.59359,-54.27349
2019-12-26 12:14:01+00:00,322.0,8.19,322.0,10.37,12.65,47.59359,-54.27349
2019-12-26 12:24:01+00:00,323.0,7.14,323.0,8.36,12.65,47.59359,-54.27349
2019-12-26 12:34:01+00:00,324.0,8.93,330.0,10.03,12.65,47.59359,-54.27349
2019-12-26 12:44:01+00:00,334.0,7.79,330.0,9.19,12.65,47.59359,-54.27349
2019-12-26 12:54:01+00:00,328.0,10.23,328.0,11.86,12.65,47.59359,-54.27349
2019-12-26 13:04:01+00:00,337.0,7.55,335.0,10.08,12.65,47.59359,-54.27349
2019-12-26 13:14:01+00:00,340.0,8.2,329.0,10.47,12.89,47.59359,-54.27349
2019-12-26 13:24:01+00:00,334.0,10.0,336.0,11.98,12.89,47.59359,-54.27349
2019-12-26 13:34:01+00:00,333.0,11.33,330.0,13.69,12.89,47.59359,-54.27349
2019-12-26 13:44:01+00:00,337.0,11.59,342.0,13.38,12.89,47.59359,-54.27349
2019-12-26 13:54:01+00:00,334.0,12.0,338.0,14.28,12.89,47.59359,-54.27349
2019-12-26 14:04:01+00:00,336.0,11.18,334.0,13.65,12.89,47.59359,-54.27349
2019-12-26 14:14:01+00:00,339.0,10.66,328.0,12.53,13.6,47.59359,-54.27349
2019-12-26 14:24:01+00:00,335.0,10.49,328.0,13.24,13.6,47.59359,-54.27349
2019-12-26 14:34:01+00:00,341.0,10.05,344.0,12.57,13.6,47.59359,-54.27349
2019-12-26 14:44:01+00:00,353.0,12.51,0.0,14.96,13.6,47.59359,-54.27349
2019-12-26 14:54:01+00:00,340.0,12.13,335.0,16.64,13.6,47.59359,-54.27349
2019-12-26 15:04:01+00:00,345.0,14.07,345.0,16.76,13.6,47.59359,-54.27349
2019-12-26 15:14:01+00:00,341.0,14.48,337.0,16.91,14.0,47.59359,-54.27349
2019-12-26 15:24:01+00:00,348.0,14.08,340.0,17.25,14.0,47.59359,-54.27349
2019-12-26 15:34:01+00:00,346.0,14.99,346.0,17.24,14.0,47.59359,-54.27349
2019-12-26 15:44:01+00:00,342.0,14.33,337.0,17.19,14.0,47.59359,-54.27349
2019-12-26 15:54:01+00:00,342.0,15.31,343.0,17.24,14.0,47.59359,-54.27349
2019-12-26 16:04:01+00:00,352.0,14.26,352.0,16.37,14.0,47.59359,-54.27349
2019-12-26 17:14:01+00:00,343.0,13.13,335.0,15.09,13.68,47.59359,-54.27349
2019-12-26 17:24:01+00:00,337.0,13.27,340.0,15.52,13.68,47.59359,-54.27349
2019-12-26 17:34:01+00:00,345.0,12.6,345.0,14.58,13.68,47.59359,-54.27349
2019-12-26 17:44:01+00:00,339.0,12.6,342.0,14.76,13.68,47.59359,-54.27349
2019-12-26 17:54:01+00:00,339.0,12.26,341.0,14.61,13.68,47.59359,-54.27349
2019-12-26 18:04:01+00:00,333.0,12.65,334.0,14.84,13.68,47.59359,-54.27349
2019-12-26 18:14:01+00:00,338.0,15.09,337.0,17.01,13.44,47.59359,-54.27349
2019-12-26 18:24:01+00:00,338.0,14.55,340.0,16.42,13.44,47.59359,-54.27349
2019-12-26 18:34:01+00:00,336.0,15.89,341.0,19.15,13.44,47.59359,-54.27349
2019-12-26 18:44:01+00:00,335.0,15.4,336.0,18.42,13.44,47.59359,-54.27349
2019-12-26 18:54:01+00:00,337.0,14.39,340.0,17.8,13.44,47.59359,-54.27349
2019-12-26 19:04:01+00:00,335.0,15.21,333.0,17.19,13.44,47.59359,-54.27349
2019-12-26 19:14:01+00:00,330.0,14.34,316.0,17.24,12.97,47.59359,-54.27349
2019-12-26 19:24:01+00:00,329.0,13.58,337.0,15.68,12.97,47.59359,-54.27349
2019-12-26 19:34:01+00:00,338.0,13.54,341.0,16.27,12.97,47.59359,-54.27349
2019-12-26 19:44:01+00:00,341.0,15.24,337.0,17.43,12.97,47.59359,-54.27349
2019-12-26 19:54:01+00:00,344.0,14.78,346.0,16.82,12.97,47.59359,-54.27349
2019-12-26 20:04:01+00:00,341.0,15.31,344.0,16.88,12.97,47.59359,-54.27349
2019-12-26 20:14:01+00:00,346.0,15.89,343.0,18.83,12.73,47.59359,-54.27349
2019-12-26 20:24:01+00:00,346.0,13.96,353.0,16.55,12.73,47.59359,-54.27349
2019-12-26 20:34:01+00:00,344.0,12.92,341.0,15.42,12.73,47.59359,-54.27349
2019-12-26 20:44:01+00:00,345.0,14.61,350.0,17.33,12.73,47.59359,-54.27349
2019-12-26 20:54:01+00:00,355.0,14.88,352.0,17.98,12.73,47.59359,-54.27349
2019-12-26 21:04:01+00:00,354.0,15.51,354.0,18.97,12.73,47.59359,-54.27349
2019-12-26 21:14:01+00:00,351.0,15.91,352.0,19.69,12.65,47.59359,-54.27349
2019-12-26 21:24:01+00:00,357.0,16.38,359.0,19.84,12.65,47.59359,-54.27349
2019-12-26 21:34:01+00:00,350.0,13.67,345.0,18.04,12.65,47.59359,-54.27349
2019-12-26 21:44:01+00:00,355.0,12.21,355.0,14.65,12.65,47.59359,-54.27349
2019-12-26 21:54:01+00:00,1.0,13.14,7.0,15.48,12.65,47.59359,-54.27349
2019-12-26 22:04:01+00:00,355.0,13.9,351.0,16.4,12.65,47.59359,-54.27349
2019-12-26 22:14:01+00:00,358.0,12.64,353.0,14.04,12.65,47.59359,-54.27349
2019-12-26 22:24:01+00:00,0.0,13.37,359.0,15.12,12.65,47.59359,-54.27349
2019-12-26 22:34:01+00:00,358.0,12.44,2.0,14.73,12.65,47.59359,-54.27349
2019-12-26 22:44:01+00:00,1.0,13.19,2.0,15.92,12.65,47.59359,-54.27349
2019-12-26 22:54:01+00:00,1.0,12.2,2.0,13.89,12.65,47.59359,-54.27349
2019-12-26 23:04:01+00:00,6.0,11.47,357.0,13.14,12.65,47.59359,-54.27349
2019-12-26 23:14:01+00:00,6.0,12.65,4.0,15.88,12.57,47.59359,-54.27349
2019-12-26 23:24:01+00:00,19.0,12.8,16.0,15.76,12.57,47.59359,-54.27349
2019-12-26 23:34:01+00:00,17.0,15.26,11.0,18.14,12.57,47.59359,-54.27349
2019-12-26 23:44:01+00:00,25.0,13.3,25.0,15.96,12.57,47.59359,-54.27349
2019-12-26 23:54:01+00:00,25.0,14.06,29.0,18.81,12.57,47.59359,-54.27349
